Index of /20260426/WXO-DD/model_rdps/10km/06/014
Name Last modified Size Description
Parent Directory -
20260426T06Z_MSC_RDPS_AbsoluteVorticity_IsbL-0250_RLatLon0.09_PT014H.grib2 2026-04-26 08:44 622K
20260426T06Z_MSC_RDPS_AbsoluteVorticity_IsbL-0500_RLatLon0.09_PT014H.grib2 2026-04-26 08:44 565K
20260426T06Z_MSC_RDPS_AbsoluteVorticity_IsbL-0700_RLatLon0.09_PT014H.grib2 2026-04-26 08:44 630K
20260426T06Z_MSC_RDPS_AbsoluteVorticity_IsbL-0850_RLatLon0.09_PT014H.grib2 2026-04-26 08:44 796K
20260426T06Z_MSC_RDPS_AirTemp_AGL-120m_RLatLon0.09_PT014H.grib2 2026-04-26 08:44 401K
20260426T06Z_MSC_RDPS_AirTemp_AGL-2m_RLatLon0.09_PT014H.grib2 2026-04-26 08:44 639K
20260426T06Z_MSC_RDPS_AirTemp_AGL-40m_RLatLon0.09_PT014H.grib2 2026-04-26 08:44 410K
20260426T06Z_MSC_RDPS_AirTemp_AGL-80m_RLatLon0.09_PT014H.grib2 2026-04-26 08:44 405K
20260426T06Z_MSC_RDPS_AirTemp_IsbL-0001_RLatLon0.09_PT014H.grib2 2026-04-26 08:44 279K
20260426T06Z_MSC_RDPS_AirTemp_IsbL-0005_RLatLon0.09_PT014H.grib2 2026-04-26 08:44 296K
20260426T06Z_MSC_RDPS_AirTemp_IsbL-0010_RLatLon0.09_PT014H.grib2 2026-04-26 08:44 307K
20260426T06Z_MSC_RDPS_AirTemp_IsbL-0020_RLatLon0.09_PT014H.grib2 2026-04-26 08:44 325K
20260426T06Z_MSC_RDPS_AirTemp_IsbL-0030_RLatLon0.09_PT014H.grib2 2026-04-26 08:44 345K
20260426T06Z_MSC_RDPS_AirTemp_IsbL-0050_RLatLon0.09_PT014H.grib2 2026-04-26 08:44 325K
20260426T06Z_MSC_RDPS_AirTemp_IsbL-0100_RLatLon0.09_PT014H.grib2 2026-04-26 08:44 424K
20260426T06Z_MSC_RDPS_AirTemp_IsbL-0150_RLatLon0.09_PT014H.grib2 2026-04-26 08:44 420K
20260426T06Z_MSC_RDPS_AirTemp_IsbL-0175_RLatLon0.09_PT014H.grib2 2026-04-26 08:44 414K
20260426T06Z_MSC_RDPS_AirTemp_IsbL-0200_RLatLon0.09_PT014H.grib2 2026-04-26 08:44 424K
20260426T06Z_MSC_RDPS_AirTemp_IsbL-0225_RLatLon0.09_PT014H.grib2 2026-04-26 08:44 427K
20260426T06Z_MSC_RDPS_AirTemp_IsbL-0250_RLatLon0.09_PT014H.grib2 2026-04-26 08:44 432K
20260426T06Z_MSC_RDPS_AirTemp_IsbL-0275_RLatLon0.09_PT014H.grib2 2026-04-26 08:44 410K
20260426T06Z_MSC_RDPS_AirTemp_IsbL-0300_RLatLon0.09_PT014H.grib2 2026-04-26 08:44 416K
20260426T06Z_MSC_RDPS_AirTemp_IsbL-0350_RLatLon0.09_PT014H.grib2 2026-04-26 08:44 426K
20260426T06Z_MSC_RDPS_AirTemp_IsbL-0400_RLatLon0.09_PT014H.grib2 2026-04-26 08:44 426K
20260426T06Z_MSC_RDPS_AirTemp_IsbL-0450_RLatLon0.09_PT014H.grib2 2026-04-26 08:44 434K
20260426T06Z_MSC_RDPS_AirTemp_IsbL-0500_RLatLon0.09_PT014H.grib2 2026-04-26 08:44 448K
20260426T06Z_MSC_RDPS_AirTemp_IsbL-0550_RLatLon0.09_PT014H.grib2 2026-04-26 08:44 470K
20260426T06Z_MSC_RDPS_AirTemp_IsbL-0600_RLatLon0.09_PT014H.grib2 2026-04-26 08:44 452K
20260426T06Z_MSC_RDPS_AirTemp_IsbL-0650_RLatLon0.09_PT014H.grib2 2026-04-26 08:44 465K
20260426T06Z_MSC_RDPS_AirTemp_IsbL-0700_RLatLon0.09_PT014H.grib2 2026-04-26 08:44 493K
20260426T06Z_MSC_RDPS_AirTemp_IsbL-0750_RLatLon0.09_PT014H.grib2 2026-04-26 08:44 421K
20260426T06Z_MSC_RDPS_AirTemp_IsbL-0800_RLatLon0.09_PT014H.grib2 2026-04-26 08:44 467K
20260426T06Z_MSC_RDPS_AirTemp_IsbL-0850_RLatLon0.09_PT014H.grib2 2026-04-26 08:44 514K
20260426T06Z_MSC_RDPS_AirTemp_IsbL-0875_RLatLon0.09_PT014H.grib2 2026-04-26 08:44 527K
20260426T06Z_MSC_RDPS_AirTemp_IsbL-0900_RLatLon0.09_PT014H.grib2 2026-04-26 08:44 533K
20260426T06Z_MSC_RDPS_AirTemp_IsbL-0925_RLatLon0.09_PT014H.grib2 2026-04-26 08:44 532K
20260426T06Z_MSC_RDPS_AirTemp_IsbL-0950_RLatLon0.09_PT014H.grib2 2026-04-26 08:44 542K
20260426T06Z_MSC_RDPS_AirTemp_IsbL-0970_RLatLon0.09_PT014H.grib2 2026-04-26 08:44 540K
20260426T06Z_MSC_RDPS_AirTemp_IsbL-0985_RLatLon0.09_PT014H.grib2 2026-04-26 08:44 535K
20260426T06Z_MSC_RDPS_AirTemp_IsbL-1000_RLatLon0.09_PT014H.grib2 2026-04-26 08:44 520K
20260426T06Z_MSC_RDPS_AirTemp_IsbL-1015_RLatLon0.09_PT014H.grib2 2026-04-26 08:44 515K
20260426T06Z_MSC_RDPS_Albedo_Sfc_RLatLon0.09_PT014H.grib2 2026-04-26 08:44 168K
20260426T06Z_MSC_RDPS_CAPE_Sfc_RLatLon0.09_PT014H.grib2 2026-04-26 08:44 1.7M
20260426T06Z_MSC_RDPS_CIN_Sfc_RLatLon0.09_PT014H.grib2 2026-04-26 08:44 1.2M
20260426T06Z_MSC_RDPS_CloudWater_EAtm_RLatLon0.09_PT014H.grib2 2026-04-26 08:44 221K
20260426T06Z_MSC_RDPS_ConvectivePrecip-Accum_Sfc_RLatLon0.09_PT014H.grib2 2026-04-26 08:44 732K
20260426T06Z_MSC_RDPS_DewPointDepression_AGL-2m_RLatLon0.09_PT014H.grib2 2026-04-26 08:44 425K
20260426T06Z_MSC_RDPS_DewPointDepression_IsbL-0001_RLatLon0.09_PT014H.grib2 2026-04-26 08:44 193
20260426T06Z_MSC_RDPS_DewPointDepression_IsbL-0005_RLatLon0.09_PT014H.grib2 2026-04-26 08:44 193
20260426T06Z_MSC_RDPS_DewPointDepression_IsbL-0010_RLatLon0.09_PT014H.grib2 2026-04-26 08:44 193
20260426T06Z_MSC_RDPS_DewPointDepression_IsbL-0020_RLatLon0.09_PT014H.grib2 2026-04-26 08:44 193
20260426T06Z_MSC_RDPS_DewPointDepression_IsbL-0030_RLatLon0.09_PT014H.grib2 2026-04-26 08:44 193
20260426T06Z_MSC_RDPS_DewPointDepression_IsbL-0050_RLatLon0.09_PT014H.grib2 2026-04-26 08:44 92K
20260426T06Z_MSC_RDPS_DewPointDepression_IsbL-0100_RLatLon0.09_PT014H.grib2 2026-04-26 08:44 127K
20260426T06Z_MSC_RDPS_DewPointDepression_IsbL-0150_RLatLon0.09_PT014H.grib2 2026-04-26 08:44 153K
20260426T06Z_MSC_RDPS_DewPointDepression_IsbL-0175_RLatLon0.09_PT014H.grib2 2026-04-26 08:44 193K
20260426T06Z_MSC_RDPS_DewPointDepression_IsbL-0200_RLatLon0.09_PT014H.grib2 2026-04-26 08:44 235K
20260426T06Z_MSC_RDPS_DewPointDepression_IsbL-0225_RLatLon0.09_PT014H.grib2 2026-04-26 08:44 272K
20260426T06Z_MSC_RDPS_DewPointDepression_IsbL-0250_RLatLon0.09_PT014H.grib2 2026-04-26 08:44 311K
20260426T06Z_MSC_RDPS_DewPointDepression_IsbL-0275_RLatLon0.09_PT014H.grib2 2026-04-26 08:44 322K
20260426T06Z_MSC_RDPS_DewPointDepression_IsbL-0300_RLatLon0.09_PT014H.grib2 2026-04-26 08:44 339K
20260426T06Z_MSC_RDPS_DewPointDepression_IsbL-0350_RLatLon0.09_PT014H.grib2 2026-04-26 08:44 340K
20260426T06Z_MSC_RDPS_DewPointDepression_IsbL-0400_RLatLon0.09_PT014H.grib2 2026-04-26 08:44 352K
20260426T06Z_MSC_RDPS_DewPointDepression_IsbL-0450_RLatLon0.09_PT014H.grib2 2026-04-26 08:44 361K
20260426T06Z_MSC_RDPS_DewPointDepression_IsbL-0500_RLatLon0.09_PT014H.grib2 2026-04-26 08:44 367K
20260426T06Z_MSC_RDPS_DewPointDepression_IsbL-0550_RLatLon0.09_PT014H.grib2 2026-04-26 08:44 380K
20260426T06Z_MSC_RDPS_DewPointDepression_IsbL-0600_RLatLon0.09_PT014H.grib2 2026-04-26 08:44 388K
20260426T06Z_MSC_RDPS_DewPointDepression_IsbL-0650_RLatLon0.09_PT014H.grib2 2026-04-26 08:44 389K
20260426T06Z_MSC_RDPS_DewPointDepression_IsbL-0700_RLatLon0.09_PT014H.grib2 2026-04-26 08:44 402K
20260426T06Z_MSC_RDPS_DewPointDepression_IsbL-0750_RLatLon0.09_PT014H.grib2 2026-04-26 08:44 429K
20260426T06Z_MSC_RDPS_DewPointDepression_IsbL-0800_RLatLon0.09_PT014H.grib2 2026-04-26 08:44 465K
20260426T06Z_MSC_RDPS_DewPointDepression_IsbL-0850_RLatLon0.09_PT014H.grib2 2026-04-26 08:44 489K
20260426T06Z_MSC_RDPS_DewPointDepression_IsbL-0875_RLatLon0.09_PT014H.grib2 2026-04-26 08:44 485K
20260426T06Z_MSC_RDPS_DewPointDepression_IsbL-0900_RLatLon0.09_PT014H.grib2 2026-04-26 08:44 475K
20260426T06Z_MSC_RDPS_DewPointDepression_IsbL-0925_RLatLon0.09_PT014H.grib2 2026-04-26 08:44 464K
20260426T06Z_MSC_RDPS_DewPointDepression_IsbL-0950_RLatLon0.09_PT014H.grib2 2026-04-26 08:44 452K
20260426T06Z_MSC_RDPS_DewPointDepression_IsbL-0970_RLatLon0.09_PT014H.grib2 2026-04-26 08:44 444K
20260426T06Z_MSC_RDPS_DewPointDepression_IsbL-0985_RLatLon0.09_PT014H.grib2 2026-04-26 08:44 440K
20260426T06Z_MSC_RDPS_DewPointDepression_IsbL-1000_RLatLon0.09_PT014H.grib2 2026-04-26 08:44 434K
20260426T06Z_MSC_RDPS_DewPointDepression_IsbL-1015_RLatLon0.09_PT014H.grib2 2026-04-26 08:44 428K
20260426T06Z_MSC_RDPS_DewPoint_AGL-2m_RLatLon0.09_PT014H.grib2 2026-04-26 08:44 315K
20260426T06Z_MSC_RDPS_DownwardLongwaveRadiationFlux-Accum_Sfc_RLatLon0.09_PT014H.grib2 2026-04-26 08:44 512K
20260426T06Z_MSC_RDPS_DownwardShortwaveRadiationFlux-Accum_NTAtm_RLatLon0.09_PT014H.grib2 2026-04-26 08:44 132K
20260426T06Z_MSC_RDPS_DownwardShortwaveRadiationFlux-Accum_Sfc_RLatLon0.09_PT014H.grib2 2026-04-26 08:44 561K
20260426T06Z_MSC_RDPS_FreezingRain-Accum1h_Sfc_RLatLon0.09_PT014H.grib2 2026-04-26 08:44 9.5K
20260426T06Z_MSC_RDPS_FreezingRain-Accum_Sfc_RLatLon0.09_PT014H.grib2 2026-04-26 08:44 102K
20260426T06Z_MSC_RDPS_GeopotentialHeight_IsbL-0001_RLatLon0.09_PT014H.grib2 2026-04-26 08:44 282K
20260426T06Z_MSC_RDPS_GeopotentialHeight_IsbL-0005_RLatLon0.09_PT014H.grib2 2026-04-26 08:44 347K
20260426T06Z_MSC_RDPS_GeopotentialHeight_IsbL-0010_RLatLon0.09_PT014H.grib2 2026-04-26 08:44 316K
20260426T06Z_MSC_RDPS_GeopotentialHeight_IsbL-0020_RLatLon0.09_PT014H.grib2 2026-04-26 08:44 316K
20260426T06Z_MSC_RDPS_GeopotentialHeight_IsbL-0030_RLatLon0.09_PT014H.grib2 2026-04-26 08:44 415K
20260426T06Z_MSC_RDPS_GeopotentialHeight_IsbL-0050_RLatLon0.09_PT014H.grib2 2026-04-26 08:44 318K
20260426T06Z_MSC_RDPS_GeopotentialHeight_IsbL-0100_RLatLon0.09_PT014H.grib2 2026-04-26 08:44 293K
20260426T06Z_MSC_RDPS_GeopotentialHeight_IsbL-0150_RLatLon0.09_PT014H.grib2 2026-04-26 08:44 233K
20260426T06Z_MSC_RDPS_GeopotentialHeight_IsbL-0175_RLatLon0.09_PT014H.grib2 2026-04-26 08:44 236K
20260426T06Z_MSC_RDPS_GeopotentialHeight_IsbL-0200_RLatLon0.09_PT014H.grib2 2026-04-26 08:44 269K
20260426T06Z_MSC_RDPS_GeopotentialHeight_IsbL-0225_RLatLon0.09_PT014H.grib2 2026-04-26 08:44 271K
20260426T06Z_MSC_RDPS_GeopotentialHeight_IsbL-0250_RLatLon0.09_PT014H.grib2 2026-04-26 08:44 273K
20260426T06Z_MSC_RDPS_GeopotentialHeight_IsbL-0275_RLatLon0.09_PT014H.grib2 2026-04-26 08:44 241K
20260426T06Z_MSC_RDPS_GeopotentialHeight_IsbL-0300_RLatLon0.09_PT014H.grib2 2026-04-26 08:44 240K
20260426T06Z_MSC_RDPS_GeopotentialHeight_IsbL-0350_RLatLon0.09_PT014H.grib2 2026-04-26 08:44 236K
20260426T06Z_MSC_RDPS_GeopotentialHeight_IsbL-0400_RLatLon0.09_PT014H.grib2 2026-04-26 08:44 232K
20260426T06Z_MSC_RDPS_GeopotentialHeight_IsbL-0450_RLatLon0.09_PT014H.grib2 2026-04-26 08:44 300K
20260426T06Z_MSC_RDPS_GeopotentialHeight_IsbL-0500_RLatLon0.09_PT014H.grib2 2026-04-26 08:44 296K
20260426T06Z_MSC_RDPS_GeopotentialHeight_IsbL-0550_RLatLon0.09_PT014H.grib2 2026-04-26 08:44 291K
20260426T06Z_MSC_RDPS_GeopotentialHeight_IsbL-0600_RLatLon0.09_PT014H.grib2 2026-04-26 08:44 288K
20260426T06Z_MSC_RDPS_GeopotentialHeight_IsbL-0650_RLatLon0.09_PT014H.grib2 2026-04-26 08:44 286K
20260426T06Z_MSC_RDPS_GeopotentialHeight_IsbL-0700_RLatLon0.09_PT014H.grib2 2026-04-26 08:44 284K
20260426T06Z_MSC_RDPS_GeopotentialHeight_IsbL-0750_RLatLon0.09_PT014H.grib2 2026-04-26 08:44 284K
20260426T06Z_MSC_RDPS_GeopotentialHeight_IsbL-0800_RLatLon0.09_PT014H.grib2 2026-04-26 08:44 265K
20260426T06Z_MSC_RDPS_GeopotentialHeight_IsbL-0850_RLatLon0.09_PT014H.grib2 2026-04-26 08:44 273K
20260426T06Z_MSC_RDPS_GeopotentialHeight_IsbL-0875_RLatLon0.09_PT014H.grib2 2026-04-26 08:44 276K
20260426T06Z_MSC_RDPS_GeopotentialHeight_IsbL-0900_RLatLon0.09_PT014H.grib2 2026-04-26 08:44 280K
20260426T06Z_MSC_RDPS_GeopotentialHeight_IsbL-0925_RLatLon0.09_PT014H.grib2 2026-04-26 08:44 282K
20260426T06Z_MSC_RDPS_GeopotentialHeight_IsbL-0950_RLatLon0.09_PT014H.grib2 2026-04-26 08:44 286K
20260426T06Z_MSC_RDPS_GeopotentialHeight_IsbL-0970_RLatLon0.09_PT014H.grib2 2026-04-26 08:44 292K
20260426T06Z_MSC_RDPS_GeopotentialHeight_IsbL-0985_RLatLon0.09_PT014H.grib2 2026-04-26 08:44 300K
20260426T06Z_MSC_RDPS_GeopotentialHeight_IsbL-1000_RLatLon0.09_PT014H.grib2 2026-04-26 08:44 311K
20260426T06Z_MSC_RDPS_GeopotentialHeight_IsbL-1015_RLatLon0.09_PT014H.grib2 2026-04-26 08:44 323K
20260426T06Z_MSC_RDPS_Humidex_Sfc_RLatLon0.09_PT014H.grib2 2026-04-26 08:44 2.4M
20260426T06Z_MSC_RDPS_IcePellets-Accum1h_Sfc_RLatLon0.09_PT014H.grib2 2026-04-26 08:44 5.9K
20260426T06Z_MSC_RDPS_IcePellets-Accum_Sfc_RLatLon0.09_PT014H.grib2 2026-04-26 08:44 26K
20260426T06Z_MSC_RDPS_KIndex_Sfc_RLatLon0.09_PT014H.grib2 2026-04-26 08:44 2.5M
20260426T06Z_MSC_RDPS_LatentHeatNetFlux_Sfc_RLatLon0.09_PT014H.grib2 2026-04-26 08:44 311K
20260426T06Z_MSC_RDPS_LiftedIndex-MU-VT_IsbL-0500_RLatLon0.09_PT014H.grib2 2026-04-26 08:44 2.4M
20260426T06Z_MSC_RDPS_NetLongwaveRadiationFlux-Accum_Sfc_RLatLon0.09_PT014H.grib2 2026-04-26 08:44 648K
20260426T06Z_MSC_RDPS_NetShortwaveRadiationFlux-Accum_Sfc_RLatLon0.09_PT014H.grib2 2026-04-26 08:44 558K
20260426T06Z_MSC_RDPS_PlanetaryBoundaryLayerHeight_Sfc_RLatLon0.09_PT014H.grib2 2026-04-26 08:44 1.0M
20260426T06Z_MSC_RDPS_Precip-Accum1h_Sfc_RLatLon0.09_PT014H.grib2 2026-04-26 08:44 1.3M
20260426T06Z_MSC_RDPS_Precip-Accum_Sfc_RLatLon0.09_PT014H.grib2 2026-04-26 08:44 1.8M
20260426T06Z_MSC_RDPS_PrecipRate_Sfc_RLatLon0.09_PT014H.grib2 2026-04-26 08:44 192K
20260426T06Z_MSC_RDPS_PrecipType-Instant_Sfc_RLatLon0.09_PT014H.grib2 2026-04-26 08:44 617K
20260426T06Z_MSC_RDPS_Pressure-Trend3h_Sfc_RLatLon0.09_PT014H.grib2 2026-04-26 08:44 1.2M
20260426T06Z_MSC_RDPS_Pressure_MSL_RLatLon0.09_PT014H.grib2 2026-04-26 08:44 335K
20260426T06Z_MSC_RDPS_Pressure_PVU-1.5_RLatLon0.09_PT014H.grib2 2026-04-26 08:44 2.5M
20260426T06Z_MSC_RDPS_Pressure_PVU-1_RLatLon0.09_PT014H.grib2 2026-04-26 08:44 2.4M
20260426T06Z_MSC_RDPS_Pressure_PVU-2_RLatLon0.09_PT014H.grib2 2026-04-26 08:44 2.4M
20260426T06Z_MSC_RDPS_Pressure_Sfc_RLatLon0.09_PT014H.grib2 2026-04-26 08:44 500K
20260426T06Z_MSC_RDPS_RadiativeTemp_Sfc_RLatLon0.09_PT014H.grib2 2026-04-26 08:44 333K
20260426T06Z_MSC_RDPS_Rain-Accum1h_Sfc_RLatLon0.09_PT014H.grib2 2026-04-26 08:44 627K
20260426T06Z_MSC_RDPS_Rain-Accum_Sfc_RLatLon0.09_PT014H.grib2 2026-04-26 08:44 1.3M
20260426T06Z_MSC_RDPS_RelativeHumidity_AGL-2m_RLatLon0.09_PT014H.grib2 2026-04-26 08:44 1.0M
20260426T06Z_MSC_RDPS_RelativeHumidity_IsbL-0010_RLatLon0.09_PT014H.grib2 2026-04-26 08:44 633K
20260426T06Z_MSC_RDPS_RelativeHumidity_IsbL-0020_RLatLon0.09_PT014H.grib2 2026-04-26 08:44 660K
20260426T06Z_MSC_RDPS_RelativeHumidity_IsbL-0030_RLatLon0.09_PT014H.grib2 2026-04-26 08:44 546K
20260426T06Z_MSC_RDPS_RelativeHumidity_IsbL-0050_RLatLon0.09_PT014H.grib2 2026-04-26 08:44 332K
20260426T06Z_MSC_RDPS_RelativeHumidity_IsbL-0100_RLatLon0.09_PT014H.grib2 2026-04-26 08:44 273K
20260426T06Z_MSC_RDPS_RelativeHumidity_IsbL-0150_RLatLon0.09_PT014H.grib2 2026-04-26 08:44 408K
20260426T06Z_MSC_RDPS_RelativeHumidity_IsbL-0175_RLatLon0.09_PT014H.grib2 2026-04-26 08:44 489K
20260426T06Z_MSC_RDPS_RelativeHumidity_IsbL-0200_RLatLon0.09_PT014H.grib2 2026-04-26 08:44 571K
20260426T06Z_MSC_RDPS_RelativeHumidity_IsbL-0225_RLatLon0.09_PT014H.grib2 2026-04-26 08:44 639K
20260426T06Z_MSC_RDPS_RelativeHumidity_IsbL-0250_RLatLon0.09_PT014H.grib2 2026-04-26 08:44 711K
20260426T06Z_MSC_RDPS_RelativeHumidity_IsbL-0275_RLatLon0.09_PT014H.grib2 2026-04-26 08:44 740K
20260426T06Z_MSC_RDPS_RelativeHumidity_IsbL-0300_RLatLon0.09_PT014H.grib2 2026-04-26 08:44 783K
20260426T06Z_MSC_RDPS_RelativeHumidity_IsbL-0350_RLatLon0.09_PT014H.grib2 2026-04-26 08:44 797K
20260426T06Z_MSC_RDPS_RelativeHumidity_IsbL-0400_RLatLon0.09_PT014H.grib2 2026-04-26 08:44 810K
20260426T06Z_MSC_RDPS_RelativeHumidity_IsbL-0450_RLatLon0.09_PT014H.grib2 2026-04-26 08:44 817K
20260426T06Z_MSC_RDPS_RelativeHumidity_IsbL-0500_RLatLon0.09_PT014H.grib2 2026-04-26 08:44 825K
20260426T06Z_MSC_RDPS_RelativeHumidity_IsbL-0550_RLatLon0.09_PT014H.grib2 2026-04-26 08:44 854K
20260426T06Z_MSC_RDPS_RelativeHumidity_IsbL-0600_RLatLon0.09_PT014H.grib2 2026-04-26 08:44 873K
20260426T06Z_MSC_RDPS_RelativeHumidity_IsbL-0650_RLatLon0.09_PT014H.grib2 2026-04-26 08:44 878K
20260426T06Z_MSC_RDPS_RelativeHumidity_IsbL-0700_RLatLon0.09_PT014H.grib2 2026-04-26 08:44 912K
20260426T06Z_MSC_RDPS_RelativeHumidity_IsbL-0750_RLatLon0.09_PT014H.grib2 2026-04-26 08:44 960K
20260426T06Z_MSC_RDPS_RelativeHumidity_IsbL-0800_RLatLon0.09_PT014H.grib2 2026-04-26 08:44 1.0M
20260426T06Z_MSC_RDPS_RelativeHumidity_IsbL-0850_RLatLon0.09_PT014H.grib2 2026-04-26 08:44 1.1M
20260426T06Z_MSC_RDPS_RelativeHumidity_IsbL-0875_RLatLon0.09_PT014H.grib2 2026-04-26 08:44 1.1M
20260426T06Z_MSC_RDPS_RelativeHumidity_IsbL-0900_RLatLon0.09_PT014H.grib2 2026-04-26 08:44 1.1M
20260426T06Z_MSC_RDPS_RelativeHumidity_IsbL-0925_RLatLon0.09_PT014H.grib2 2026-04-26 08:44 1.1M
20260426T06Z_MSC_RDPS_RelativeHumidity_IsbL-0950_RLatLon0.09_PT014H.grib2 2026-04-26 08:44 1.1M
20260426T06Z_MSC_RDPS_RelativeHumidity_IsbL-0970_RLatLon0.09_PT014H.grib2 2026-04-26 08:44 1.1M
20260426T06Z_MSC_RDPS_RelativeHumidity_IsbL-0985_RLatLon0.09_PT014H.grib2 2026-04-26 08:44 1.0M
20260426T06Z_MSC_RDPS_RelativeHumidity_IsbL-1000_RLatLon0.09_PT014H.grib2 2026-04-26 08:44 1.0M
20260426T06Z_MSC_RDPS_RelativeHumidity_IsbL-1015_RLatLon0.09_PT014H.grib2 2026-04-26 08:44 1.0M
20260426T06Z_MSC_RDPS_Runoff-Accum_Sfc_RLatLon0.09_PT014H.grib2 2026-04-26 08:44 44K
20260426T06Z_MSC_RDPS_SWEATIndex_Sfc_RLatLon0.09_PT014H.grib2 2026-04-26 08:44 2.5M
20260426T06Z_MSC_RDPS_SeeingIndex_EAtm_RLatLon0.09_PT014H.grib2 2026-04-26 08:44 1.0M
20260426T06Z_MSC_RDPS_SensibleHeatNetFlux_Sfc_RLatLon0.09_PT014H.grib2 2026-04-26 08:44 369K
20260426T06Z_MSC_RDPS_ShowalterIndex_IsbL-0500_RLatLon0.09_PT014H.grib2 2026-04-26 08:44 2.5M
20260426T06Z_MSC_RDPS_SkyTransparencyIndex_EAtm_RLatLon0.09_PT014H.grib2 2026-04-26 08:44 730K
20260426T06Z_MSC_RDPS_Snow-Accum1h_Sfc_RLatLon0.09_PT014H.grib2 2026-04-26 08:44 581K
20260426T06Z_MSC_RDPS_Snow-Accum_Sfc_RLatLon0.09_PT014H.grib2 2026-04-26 08:44 725K
20260426T06Z_MSC_RDPS_SnowDensity_Sfc_RLatLon0.09_PT014H.grib2 2026-04-26 08:44 182K
20260426T06Z_MSC_RDPS_SnowDepth_Sfc_RLatLon0.09_PT014H.grib2 2026-04-26 08:44 730K
20260426T06Z_MSC_RDPS_SoilTemp_DBS-0to10cm_RLatLon0.09_PT014H.grib2 2026-04-26 08:44 214K
20260426T06Z_MSC_RDPS_SoilTemp_Sfc_RLatLon0.09_PT014H.grib2 2026-04-26 08:44 290K
20260426T06Z_MSC_RDPS_SoilVolumetricIceContent_Sfc_RLatLon0.09_PT014H.grib2 2026-04-26 08:44 168K
20260426T06Z_MSC_RDPS_SoilVolumetricWaterContent_DBS-0to10cm_RLatLon0.09_PT014H.grib2 2026-04-26 08:44 257K
20260426T06Z_MSC_RDPS_SoilVolumetricWaterContent_DBS-0to1cm_RLatLon0.09_PT014H.grib2 2026-04-26 08:44 336K
20260426T06Z_MSC_RDPS_SpecificHumidity_AGL-120m_RLatLon0.09_PT014H.grib2 2026-04-26 08:44 496K
20260426T06Z_MSC_RDPS_SpecificHumidity_AGL-2m_RLatLon0.09_PT014H.grib2 2026-04-26 08:44 665K
20260426T06Z_MSC_RDPS_SpecificHumidity_AGL-40m_RLatLon0.09_PT014H.grib2 2026-04-26 08:44 500K
20260426T06Z_MSC_RDPS_SpecificHumidity_AGL-80m_RLatLon0.09_PT014H.grib2 2026-04-26 08:44 497K
20260426T06Z_MSC_RDPS_SpecificHumidity_IsbL-0001_RLatLon0.09_PT014H.grib2 2026-04-26 08:44 346K
20260426T06Z_MSC_RDPS_SpecificHumidity_IsbL-0005_RLatLon0.09_PT014H.grib2 2026-04-26 08:44 357K
20260426T06Z_MSC_RDPS_SpecificHumidity_IsbL-0010_RLatLon0.09_PT014H.grib2 2026-04-26 08:44 399K
20260426T06Z_MSC_RDPS_SpecificHumidity_IsbL-0020_RLatLon0.09_PT014H.grib2 2026-04-26 08:44 390K
20260426T06Z_MSC_RDPS_SpecificHumidity_IsbL-0030_RLatLon0.09_PT014H.grib2 2026-04-26 08:44 482K
20260426T06Z_MSC_RDPS_SpecificHumidity_IsbL-0050_RLatLon0.09_PT014H.grib2 2026-04-26 08:44 481K
20260426T06Z_MSC_RDPS_SpecificHumidity_IsbL-0100_RLatLon0.09_PT014H.grib2 2026-04-26 08:44 422K
20260426T06Z_MSC_RDPS_SpecificHumidity_IsbL-0150_RLatLon0.09_PT014H.grib2 2026-04-26 08:44 453K
20260426T06Z_MSC_RDPS_SpecificHumidity_IsbL-0175_RLatLon0.09_PT014H.grib2 2026-04-26 08:44 456K
20260426T06Z_MSC_RDPS_SpecificHumidity_IsbL-0200_RLatLon0.09_PT014H.grib2 2026-04-26 08:44 576K
20260426T06Z_MSC_RDPS_SpecificHumidity_IsbL-0225_RLatLon0.09_PT014H.grib2 2026-04-26 08:44 576K
20260426T06Z_MSC_RDPS_SpecificHumidity_IsbL-0250_RLatLon0.09_PT014H.grib2 2026-04-26 08:44 575K
20260426T06Z_MSC_RDPS_SpecificHumidity_IsbL-0275_RLatLon0.09_PT014H.grib2 2026-04-26 08:44 491K
20260426T06Z_MSC_RDPS_SpecificHumidity_IsbL-0300_RLatLon0.09_PT014H.grib2 2026-04-26 08:44 562K
20260426T06Z_MSC_RDPS_SpecificHumidity_IsbL-0350_RLatLon0.09_PT014H.grib2 2026-04-26 08:44 546K
20260426T06Z_MSC_RDPS_SpecificHumidity_IsbL-0400_RLatLon0.09_PT014H.grib2 2026-04-26 08:44 527K
20260426T06Z_MSC_RDPS_SpecificHumidity_IsbL-0450_RLatLon0.09_PT014H.grib2 2026-04-26 08:44 580K
20260426T06Z_MSC_RDPS_SpecificHumidity_IsbL-0500_RLatLon0.09_PT014H.grib2 2026-04-26 08:44 516K
20260426T06Z_MSC_RDPS_SpecificHumidity_IsbL-0550_RLatLon0.09_PT014H.grib2 2026-04-26 08:44 588K
20260426T06Z_MSC_RDPS_SpecificHumidity_IsbL-0600_RLatLon0.09_PT014H.grib2 2026-04-26 08:44 639K
20260426T06Z_MSC_RDPS_SpecificHumidity_IsbL-0650_RLatLon0.09_PT014H.grib2 2026-04-26 08:44 555K
20260426T06Z_MSC_RDPS_SpecificHumidity_IsbL-0700_RLatLon0.09_PT014H.grib2 2026-04-26 08:44 600K
20260426T06Z_MSC_RDPS_SpecificHumidity_IsbL-0750_RLatLon0.09_PT014H.grib2 2026-04-26 08:44 662K
20260426T06Z_MSC_RDPS_SpecificHumidity_IsbL-0800_RLatLon0.09_PT014H.grib2 2026-04-26 08:44 751K
20260426T06Z_MSC_RDPS_SpecificHumidity_IsbL-0850_RLatLon0.09_PT014H.grib2 2026-04-26 08:44 824K
20260426T06Z_MSC_RDPS_SpecificHumidity_IsbL-0875_RLatLon0.09_PT014H.grib2 2026-04-26 08:44 843K
20260426T06Z_MSC_RDPS_SpecificHumidity_IsbL-0900_RLatLon0.09_PT014H.grib2 2026-04-26 08:44 712K
20260426T06Z_MSC_RDPS_SpecificHumidity_IsbL-0925_RLatLon0.09_PT014H.grib2 2026-04-26 08:44 711K
20260426T06Z_MSC_RDPS_SpecificHumidity_IsbL-0950_RLatLon0.09_PT014H.grib2 2026-04-26 08:44 706K
20260426T06Z_MSC_RDPS_SpecificHumidity_IsbL-0970_RLatLon0.09_PT014H.grib2 2026-04-26 08:44 696K
20260426T06Z_MSC_RDPS_SpecificHumidity_IsbL-0985_RLatLon0.09_PT014H.grib2 2026-04-26 08:44 690K
20260426T06Z_MSC_RDPS_SpecificHumidity_IsbL-1000_RLatLon0.09_PT014H.grib2 2026-04-26 08:44 684K
20260426T06Z_MSC_RDPS_SpecificHumidity_IsbL-1015_RLatLon0.09_PT014H.grib2 2026-04-26 08:44 677K
20260426T06Z_MSC_RDPS_SpecificHumidity_Sfc_RLatLon0.09_PT014H.grib2 2026-04-26 08:44 346K
20260426T06Z_MSC_RDPS_StormRelativeHelicity_EtaL-10000_RLatLon0.09_PT014H.grib2 2026-04-26 08:44 1.1M
20260426T06Z_MSC_RDPS_StormSeverityIndex_EtaL-10000_RLatLon0.09_PT014H.grib2 2026-04-26 08:44 1.1M
20260426T06Z_MSC_RDPS_Thickness_IsbL-0850to0700_RLatLon0.09_PT014H.grib2 2026-04-26 08:44 180K
20260426T06Z_MSC_RDPS_Thickness_IsbL-1000to0500_RLatLon0.09_PT014H.grib2 2026-04-26 08:44 207K
20260426T06Z_MSC_RDPS_Thickness_IsbL-1000to0850_RLatLon0.09_PT014H.grib2 2026-04-26 08:44 192K
20260426T06Z_MSC_RDPS_TotalCloudCover_Sfc_RLatLon0.09_PT014H.grib2 2026-04-26 08:44 670K
20260426T06Z_MSC_RDPS_TotalTotalsIndex_Sfc_RLatLon0.09_PT014H.grib2 2026-04-26 08:44 2.4M
20260426T06Z_MSC_RDPS_UVIndex-ClearSky_Sfc_RLatLon0.09_PT014H.grib2 2026-04-26 08:44 217K
20260426T06Z_MSC_RDPS_UVIndex_Sfc_RLatLon0.09_PT014H.grib2 2026-04-26 08:44 511K
20260426T06Z_MSC_RDPS_UpwardLongwaveRadiationFlux_NTAtm_RLatLon0.09_PT014H.grib2 2026-04-26 08:44 389K
20260426T06Z_MSC_RDPS_UpwardShortwaveRadiationFlux_NTAtm_RLatLon0.09_PT014H.grib2 2026-04-26 08:44 550K
20260426T06Z_MSC_RDPS_VerticalVelocity_IsbL-0250_RLatLon0.09_PT014H.grib2 2026-04-26 08:44 432K
20260426T06Z_MSC_RDPS_VerticalVelocity_IsbL-0500_RLatLon0.09_PT014H.grib2 2026-04-26 08:44 545K
20260426T06Z_MSC_RDPS_VerticalVelocity_IsbL-0700_RLatLon0.09_PT014H.grib2 2026-04-26 08:44 605K
20260426T06Z_MSC_RDPS_VerticalVelocity_IsbL-0850_RLatLon0.09_PT014H.grib2 2026-04-26 08:44 715K
20260426T06Z_MSC_RDPS_VerticalWindShear_EtaL-6500_RLatLon0.09_PT014H.grib2 2026-04-26 08:44 1.2M
20260426T06Z_MSC_RDPS_WindChill_Sfc_RLatLon0.09_PT014H.grib2 2026-04-26 08:44 1.1M
20260426T06Z_MSC_RDPS_WindDir_AGL-10m_RLatLon0.09_PT014H.grib2 2026-04-26 08:44 1.0M
20260426T06Z_MSC_RDPS_WindDir_AGL-120m_RLatLon0.09_PT014H.grib2 2026-04-26 08:44 633K
20260426T06Z_MSC_RDPS_WindDir_AGL-40m_RLatLon0.09_PT014H.grib2 2026-04-26 08:44 653K
20260426T06Z_MSC_RDPS_WindDir_AGL-80m_RLatLon0.09_PT014H.grib2 2026-04-26 08:44 641K
20260426T06Z_MSC_RDPS_WindDir_IsbL-0001_RLatLon0.09_PT014H.grib2 2026-04-26 08:44 270K
20260426T06Z_MSC_RDPS_WindDir_IsbL-0005_RLatLon0.09_PT014H.grib2 2026-04-26 08:44 372K
20260426T06Z_MSC_RDPS_WindDir_IsbL-0010_RLatLon0.09_PT014H.grib2 2026-04-26 08:44 392K
20260426T06Z_MSC_RDPS_WindDir_IsbL-0020_RLatLon0.09_PT014H.grib2 2026-04-26 08:44 402K
20260426T06Z_MSC_RDPS_WindDir_IsbL-0030_RLatLon0.09_PT014H.grib2 2026-04-26 08:44 413K
20260426T06Z_MSC_RDPS_WindDir_IsbL-0050_RLatLon0.09_PT014H.grib2 2026-04-26 08:44 435K
20260426T06Z_MSC_RDPS_WindDir_IsbL-0100_RLatLon0.09_PT014H.grib2 2026-04-26 08:44 421K
20260426T06Z_MSC_RDPS_WindDir_IsbL-0150_RLatLon0.09_PT014H.grib2 2026-04-26 08:44 424K
20260426T06Z_MSC_RDPS_WindDir_IsbL-0175_RLatLon0.09_PT014H.grib2 2026-04-26 08:44 446K
20260426T06Z_MSC_RDPS_WindDir_IsbL-0200_RLatLon0.09_PT014H.grib2 2026-04-26 08:44 453K
20260426T06Z_MSC_RDPS_WindDir_IsbL-0225_RLatLon0.09_PT014H.grib2 2026-04-26 08:44 454K
20260426T06Z_MSC_RDPS_WindDir_IsbL-0250_RLatLon0.09_PT014H.grib2 2026-04-26 08:44 459K
20260426T06Z_MSC_RDPS_WindDir_IsbL-0275_RLatLon0.09_PT014H.grib2 2026-04-26 08:44 482K
20260426T06Z_MSC_RDPS_WindDir_IsbL-0300_RLatLon0.09_PT014H.grib2 2026-04-26 08:44 481K
20260426T06Z_MSC_RDPS_WindDir_IsbL-0350_RLatLon0.09_PT014H.grib2 2026-04-26 08:44 503K
20260426T06Z_MSC_RDPS_WindDir_IsbL-0400_RLatLon0.09_PT014H.grib2 2026-04-26 08:44 515K
20260426T06Z_MSC_RDPS_WindDir_IsbL-0450_RLatLon0.09_PT014H.grib2 2026-04-26 08:44 526K
20260426T06Z_MSC_RDPS_WindDir_IsbL-0500_RLatLon0.09_PT014H.grib2 2026-04-26 08:44 540K
20260426T06Z_MSC_RDPS_WindDir_IsbL-0550_RLatLon0.09_PT014H.grib2 2026-04-26 08:44 560K
20260426T06Z_MSC_RDPS_WindDir_IsbL-0600_RLatLon0.09_PT014H.grib2 2026-04-26 08:44 590K
20260426T06Z_MSC_RDPS_WindDir_IsbL-0650_RLatLon0.09_PT014H.grib2 2026-04-26 08:44 637K
20260426T06Z_MSC_RDPS_WindDir_IsbL-0700_RLatLon0.09_PT014H.grib2 2026-04-26 08:44 689K
20260426T06Z_MSC_RDPS_WindDir_IsbL-0750_RLatLon0.09_PT014H.grib2 2026-04-26 08:44 745K
20260426T06Z_MSC_RDPS_WindDir_IsbL-0800_RLatLon0.09_PT014H.grib2 2026-04-26 08:44 827K
20260426T06Z_MSC_RDPS_WindDir_IsbL-0850_RLatLon0.09_PT014H.grib2 2026-04-26 08:44 910K
20260426T06Z_MSC_RDPS_WindDir_IsbL-0875_RLatLon0.09_PT014H.grib2 2026-04-26 08:44 928K
20260426T06Z_MSC_RDPS_WindDir_IsbL-0900_RLatLon0.09_PT014H.grib2 2026-04-26 08:44 935K
20260426T06Z_MSC_RDPS_WindDir_IsbL-0925_RLatLon0.09_PT014H.grib2 2026-04-26 08:44 936K
20260426T06Z_MSC_RDPS_WindDir_IsbL-0950_RLatLon0.09_PT014H.grib2 2026-04-26 08:44 931K
20260426T06Z_MSC_RDPS_WindDir_IsbL-0970_RLatLon0.09_PT014H.grib2 2026-04-26 08:44 935K
20260426T06Z_MSC_RDPS_WindDir_IsbL-0985_RLatLon0.09_PT014H.grib2 2026-04-26 08:44 948K
20260426T06Z_MSC_RDPS_WindDir_IsbL-1000_RLatLon0.09_PT014H.grib2 2026-04-26 08:44 965K
20260426T06Z_MSC_RDPS_WindDir_IsbL-1015_RLatLon0.09_PT014H.grib2 2026-04-26 08:44 1.0M
20260426T06Z_MSC_RDPS_WindGust-Max_AGL-10m_RLatLon0.09_PT014H.grib2 2026-04-26 08:44 950K
20260426T06Z_MSC_RDPS_WindGust-Min_AGL-10m_RLatLon0.09_PT014H.grib2 2026-04-26 08:44 929K
20260426T06Z_MSC_RDPS_WindGust_AGL-10m_RLatLon0.09_PT014H.grib2 2026-04-26 08:44 937K
20260426T06Z_MSC_RDPS_WindSpeed_AGL-10m_RLatLon0.09_PT014H.grib2 2026-04-26 08:44 858K
20260426T06Z_MSC_RDPS_WindSpeed_AGL-120m_RLatLon0.09_PT014H.grib2 2026-04-26 08:44 553K
20260426T06Z_MSC_RDPS_WindSpeed_AGL-40m_RLatLon0.09_PT014H.grib2 2026-04-26 08:44 559K
20260426T06Z_MSC_RDPS_WindSpeed_AGL-80m_RLatLon0.09_PT014H.grib2 2026-04-26 08:44 555K
20260426T06Z_MSC_RDPS_WindSpeed_IsbL-0001_RLatLon0.09_PT014H.grib2 2026-04-26 08:44 250K
20260426T06Z_MSC_RDPS_WindSpeed_IsbL-0005_RLatLon0.09_PT014H.grib2 2026-04-26 08:44 298K
20260426T06Z_MSC_RDPS_WindSpeed_IsbL-0010_RLatLon0.09_PT014H.grib2 2026-04-26 08:44 311K
20260426T06Z_MSC_RDPS_WindSpeed_IsbL-0020_RLatLon0.09_PT014H.grib2 2026-04-26 08:44 331K
20260426T06Z_MSC_RDPS_WindSpeed_IsbL-0030_RLatLon0.09_PT014H.grib2 2026-04-26 08:44 330K
20260426T06Z_MSC_RDPS_WindSpeed_IsbL-0050_RLatLon0.09_PT014H.grib2 2026-04-26 08:44 363K
20260426T06Z_MSC_RDPS_WindSpeed_IsbL-0100_RLatLon0.09_PT014H.grib2 2026-04-26 08:44 438K
20260426T06Z_MSC_RDPS_WindSpeed_IsbL-0150_RLatLon0.09_PT014H.grib2 2026-04-26 08:44 380K
20260426T06Z_MSC_RDPS_WindSpeed_IsbL-0175_RLatLon0.09_PT014H.grib2 2026-04-26 08:44 430K
20260426T06Z_MSC_RDPS_WindSpeed_IsbL-0200_RLatLon0.09_PT014H.grib2 2026-04-26 08:44 447K
20260426T06Z_MSC_RDPS_WindSpeed_IsbL-0225_RLatLon0.09_PT014H.grib2 2026-04-26 08:44 455K
20260426T06Z_MSC_RDPS_WindSpeed_IsbL-0250_RLatLon0.09_PT014H.grib2 2026-04-26 08:44 459K
20260426T06Z_MSC_RDPS_WindSpeed_IsbL-0275_RLatLon0.09_PT014H.grib2 2026-04-26 08:44 478K
20260426T06Z_MSC_RDPS_WindSpeed_IsbL-0300_RLatLon0.09_PT014H.grib2 2026-04-26 08:44 473K
20260426T06Z_MSC_RDPS_WindSpeed_IsbL-0350_RLatLon0.09_PT014H.grib2 2026-04-26 08:44 482K
20260426T06Z_MSC_RDPS_WindSpeed_IsbL-0400_RLatLon0.09_PT014H.grib2 2026-04-26 08:44 466K
20260426T06Z_MSC_RDPS_WindSpeed_IsbL-0450_RLatLon0.09_PT014H.grib2 2026-04-26 08:44 463K
20260426T06Z_MSC_RDPS_WindSpeed_IsbL-0500_RLatLon0.09_PT014H.grib2 2026-04-26 08:44 463K
20260426T06Z_MSC_RDPS_WindSpeed_IsbL-0550_RLatLon0.09_PT014H.grib2 2026-04-26 08:44 584K
20260426T06Z_MSC_RDPS_WindSpeed_IsbL-0600_RLatLon0.09_PT014H.grib2 2026-04-26 08:44 597K
20260426T06Z_MSC_RDPS_WindSpeed_IsbL-0650_RLatLon0.09_PT014H.grib2 2026-04-26 08:44 621K
20260426T06Z_MSC_RDPS_WindSpeed_IsbL-0700_RLatLon0.09_PT014H.grib2 2026-04-26 08:44 687K
20260426T06Z_MSC_RDPS_WindSpeed_IsbL-0750_RLatLon0.09_PT014H.grib2 2026-04-26 08:44 719K
20260426T06Z_MSC_RDPS_WindSpeed_IsbL-0800_RLatLon0.09_PT014H.grib2 2026-04-26 08:44 770K
20260426T06Z_MSC_RDPS_WindSpeed_IsbL-0850_RLatLon0.09_PT014H.grib2 2026-04-26 08:44 828K
20260426T06Z_MSC_RDPS_WindSpeed_IsbL-0875_RLatLon0.09_PT014H.grib2 2026-04-26 08:44 846K
20260426T06Z_MSC_RDPS_WindSpeed_IsbL-0900_RLatLon0.09_PT014H.grib2 2026-04-26 08:44 811K
20260426T06Z_MSC_RDPS_WindSpeed_IsbL-0925_RLatLon0.09_PT014H.grib2 2026-04-26 08:44 818K
20260426T06Z_MSC_RDPS_WindSpeed_IsbL-0950_RLatLon0.09_PT014H.grib2 2026-04-26 08:44 815K
20260426T06Z_MSC_RDPS_WindSpeed_IsbL-0970_RLatLon0.09_PT014H.grib2 2026-04-26 08:44 816K
20260426T06Z_MSC_RDPS_WindSpeed_IsbL-0985_RLatLon0.09_PT014H.grib2 2026-04-26 08:44 864K
20260426T06Z_MSC_RDPS_WindSpeed_IsbL-1000_RLatLon0.09_PT014H.grib2 2026-04-26 08:44 863K
20260426T06Z_MSC_RDPS_WindSpeed_IsbL-1015_RLatLon0.09_PT014H.grib2 2026-04-26 08:44 858K
20260426T06Z_MSC_RDPS_WindU_AGL-10m_RLatLon0.09_PT014H.grib2 2026-04-26 08:44 442K
20260426T06Z_MSC_RDPS_WindU_AGL-120m_RLatLon0.09_PT014H.grib2 2026-04-26 08:44 423K
20260426T06Z_MSC_RDPS_WindU_AGL-40m_RLatLon0.09_PT014H.grib2 2026-04-26 08:44 545K
20260426T06Z_MSC_RDPS_WindU_AGL-80m_RLatLon0.09_PT014H.grib2 2026-04-26 08:44 542K
20260426T06Z_MSC_RDPS_WindU_IsbL-0001_RLatLon0.09_PT014H.grib2 2026-04-26 08:44 292K
20260426T06Z_MSC_RDPS_WindU_IsbL-0005_RLatLon0.09_PT014H.grib2 2026-04-26 08:44 289K
20260426T06Z_MSC_RDPS_WindU_IsbL-0010_RLatLon0.09_PT014H.grib2 2026-04-26 08:44 302K
20260426T06Z_MSC_RDPS_WindU_IsbL-0020_RLatLon0.09_PT014H.grib2 2026-04-26 08:44 361K
20260426T06Z_MSC_RDPS_WindU_IsbL-0030_RLatLon0.09_PT014H.grib2 2026-04-26 08:44 360K
20260426T06Z_MSC_RDPS_WindU_IsbL-0050_RLatLon0.09_PT014H.grib2 2026-04-26 08:44 358K
20260426T06Z_MSC_RDPS_WindU_IsbL-0100_RLatLon0.09_PT014H.grib2 2026-04-26 08:44 337K
20260426T06Z_MSC_RDPS_WindU_IsbL-0150_RLatLon0.09_PT014H.grib2 2026-04-26 08:44 396K
20260426T06Z_MSC_RDPS_WindU_IsbL-0175_RLatLon0.09_PT014H.grib2 2026-04-26 08:44 424K
20260426T06Z_MSC_RDPS_WindU_IsbL-0200_RLatLon0.09_PT014H.grib2 2026-04-26 08:44 440K
20260426T06Z_MSC_RDPS_WindU_IsbL-0225_RLatLon0.09_PT014H.grib2 2026-04-26 08:44 346K
20260426T06Z_MSC_RDPS_WindU_IsbL-0250_RLatLon0.09_PT014H.grib2 2026-04-26 08:44 348K
20260426T06Z_MSC_RDPS_WindU_IsbL-0275_RLatLon0.09_PT014H.grib2 2026-04-26 08:44 363K
20260426T06Z_MSC_RDPS_WindU_IsbL-0300_RLatLon0.09_PT014H.grib2 2026-04-26 08:44 359K
20260426T06Z_MSC_RDPS_WindU_IsbL-0350_RLatLon0.09_PT014H.grib2 2026-04-26 08:44 365K
20260426T06Z_MSC_RDPS_WindU_IsbL-0400_RLatLon0.09_PT014H.grib2 2026-04-26 08:44 470K
20260426T06Z_MSC_RDPS_WindU_IsbL-0450_RLatLon0.09_PT014H.grib2 2026-04-26 08:44 468K
20260426T06Z_MSC_RDPS_WindU_IsbL-0500_RLatLon0.09_PT014H.grib2 2026-04-26 08:44 469K
20260426T06Z_MSC_RDPS_WindU_IsbL-0550_RLatLon0.09_PT014H.grib2 2026-04-26 08:44 455K
20260426T06Z_MSC_RDPS_WindU_IsbL-0600_RLatLon0.09_PT014H.grib2 2026-04-26 08:44 468K
20260426T06Z_MSC_RDPS_WindU_IsbL-0650_RLatLon0.09_PT014H.grib2 2026-04-26 08:44 490K
20260426T06Z_MSC_RDPS_WindU_IsbL-0700_RLatLon0.09_PT014H.grib2 2026-04-26 08:44 511K
20260426T06Z_MSC_RDPS_WindU_IsbL-0750_RLatLon0.09_PT014H.grib2 2026-04-26 08:44 539K
20260426T06Z_MSC_RDPS_WindU_IsbL-0800_RLatLon0.09_PT014H.grib2 2026-04-26 08:44 585K
20260426T06Z_MSC_RDPS_WindU_IsbL-0850_RLatLon0.09_PT014H.grib2 2026-04-26 08:44 635K
20260426T06Z_MSC_RDPS_WindU_IsbL-0875_RLatLon0.09_PT014H.grib2 2026-04-26 08:44 651K
20260426T06Z_MSC_RDPS_WindU_IsbL-0900_RLatLon0.09_PT014H.grib2 2026-04-26 08:44 659K
20260426T06Z_MSC_RDPS_WindU_IsbL-0925_RLatLon0.09_PT014H.grib2 2026-04-26 08:44 663K
20260426T06Z_MSC_RDPS_WindU_IsbL-0950_RLatLon0.09_PT014H.grib2 2026-04-26 08:44 658K
20260426T06Z_MSC_RDPS_WindU_IsbL-0970_RLatLon0.09_PT014H.grib2 2026-04-26 08:44 797K
20260426T06Z_MSC_RDPS_WindU_IsbL-0985_RLatLon0.09_PT014H.grib2 2026-04-26 08:44 798K
20260426T06Z_MSC_RDPS_WindU_IsbL-1000_RLatLon0.09_PT014H.grib2 2026-04-26 08:44 798K
20260426T06Z_MSC_RDPS_WindU_IsbL-1015_RLatLon0.09_PT014H.grib2 2026-04-26 08:44 794K
20260426T06Z_MSC_RDPS_WindV_AGL-10m_RLatLon0.09_PT014H.grib2 2026-04-26 08:44 439K
20260426T06Z_MSC_RDPS_WindV_AGL-120m_RLatLon0.09_PT014H.grib2 2026-04-26 08:44 422K
20260426T06Z_MSC_RDPS_WindV_AGL-40m_RLatLon0.09_PT014H.grib2 2026-04-26 08:44 424K
20260426T06Z_MSC_RDPS_WindV_AGL-80m_RLatLon0.09_PT014H.grib2 2026-04-26 08:44 423K
20260426T06Z_MSC_RDPS_WindV_IsbL-0001_RLatLon0.09_PT014H.grib2 2026-04-26 08:44 208K
20260426T06Z_MSC_RDPS_WindV_IsbL-0005_RLatLon0.09_PT014H.grib2 2026-04-26 08:44 289K
20260426T06Z_MSC_RDPS_WindV_IsbL-0010_RLatLon0.09_PT014H.grib2 2026-04-26 08:44 303K
20260426T06Z_MSC_RDPS_WindV_IsbL-0020_RLatLon0.09_PT014H.grib2 2026-04-26 08:44 362K
20260426T06Z_MSC_RDPS_WindV_IsbL-0030_RLatLon0.09_PT014H.grib2 2026-04-26 08:44 360K
20260426T06Z_MSC_RDPS_WindV_IsbL-0050_RLatLon0.09_PT014H.grib2 2026-04-26 08:44 355K
20260426T06Z_MSC_RDPS_WindV_IsbL-0100_RLatLon0.09_PT014H.grib2 2026-04-26 08:44 331K
20260426T06Z_MSC_RDPS_WindV_IsbL-0150_RLatLon0.09_PT014H.grib2 2026-04-26 08:44 394K
20260426T06Z_MSC_RDPS_WindV_IsbL-0175_RLatLon0.09_PT014H.grib2 2026-04-26 08:44 421K
20260426T06Z_MSC_RDPS_WindV_IsbL-0200_RLatLon0.09_PT014H.grib2 2026-04-26 08:44 438K
20260426T06Z_MSC_RDPS_WindV_IsbL-0225_RLatLon0.09_PT014H.grib2 2026-04-26 08:44 443K
20260426T06Z_MSC_RDPS_WindV_IsbL-0250_RLatLon0.09_PT014H.grib2 2026-04-26 08:44 345K
20260426T06Z_MSC_RDPS_WindV_IsbL-0275_RLatLon0.09_PT014H.grib2 2026-04-26 08:44 360K
20260426T06Z_MSC_RDPS_WindV_IsbL-0300_RLatLon0.09_PT014H.grib2 2026-04-26 08:44 379K
20260426T06Z_MSC_RDPS_WindV_IsbL-0350_RLatLon0.09_PT014H.grib2 2026-04-26 08:44 361K
20260426T06Z_MSC_RDPS_WindV_IsbL-0400_RLatLon0.09_PT014H.grib2 2026-04-26 08:44 362K
20260426T06Z_MSC_RDPS_WindV_IsbL-0450_RLatLon0.09_PT014H.grib2 2026-04-26 08:44 360K
20260426T06Z_MSC_RDPS_WindV_IsbL-0500_RLatLon0.09_PT014H.grib2 2026-04-26 08:44 463K
20260426T06Z_MSC_RDPS_WindV_IsbL-0550_RLatLon0.09_PT014H.grib2 2026-04-26 08:44 468K
20260426T06Z_MSC_RDPS_WindV_IsbL-0600_RLatLon0.09_PT014H.grib2 2026-04-26 08:44 479K
20260426T06Z_MSC_RDPS_WindV_IsbL-0650_RLatLon0.09_PT014H.grib2 2026-04-26 08:44 499K
20260426T06Z_MSC_RDPS_WindV_IsbL-0700_RLatLon0.09_PT014H.grib2 2026-04-26 08:44 505K
20260426T06Z_MSC_RDPS_WindV_IsbL-0750_RLatLon0.09_PT014H.grib2 2026-04-26 08:44 533K
20260426T06Z_MSC_RDPS_WindV_IsbL-0800_RLatLon0.09_PT014H.grib2 2026-04-26 08:44 589K
20260426T06Z_MSC_RDPS_WindV_IsbL-0850_RLatLon0.09_PT014H.grib2 2026-04-26 08:44 638K
20260426T06Z_MSC_RDPS_WindV_IsbL-0875_RLatLon0.09_PT014H.grib2 2026-04-26 08:44 653K
20260426T06Z_MSC_RDPS_WindV_IsbL-0900_RLatLon0.09_PT014H.grib2 2026-04-26 08:44 661K
20260426T06Z_MSC_RDPS_WindV_IsbL-0925_RLatLon0.09_PT014H.grib2 2026-04-26 08:44 666K
20260426T06Z_MSC_RDPS_WindV_IsbL-0950_RLatLon0.09_PT014H.grib2 2026-04-26 08:44 661K
20260426T06Z_MSC_RDPS_WindV_IsbL-0970_RLatLon0.09_PT014H.grib2 2026-04-26 08:44 656K
20260426T06Z_MSC_RDPS_WindV_IsbL-0985_RLatLon0.09_PT014H.grib2 2026-04-26 08:44 657K
20260426T06Z_MSC_RDPS_WindV_IsbL-1000_RLatLon0.09_PT014H.grib2 2026-04-26 08:44 657K
20260426T06Z_MSC_RDPS_WindV_IsbL-1015_RLatLon0.09_PT014H.grib2 2026-04-26 08:44 791K